Flag for Denmark Weather past 2 weeks in Aalborg, Denmark

Now
63 °F

Passing clouds.


Feels Like: 63 °F
Forecast: 61 / 72 °F
Wind: 3 mph from West

Location: Aalborg Airport

Current Time: Jul 31, 2014 at 12:03:25 AM

Latest Report: Jul 30, 2014 at 11:20 PM


Visibility: N/A

Pressure: 29.77 "Hg

Humidity: 83%

Dew point: 57 °F

Location of AalborgLocation

Historic Weather in Aalborg — Graph

°F

Aalborg temperature yesterday

Maximum temperature yesterday: 75 °F (at 12:20 PM)
Minimum temperature yesterday: 59 °F (at 5:50 AM)
Average temperature yesterday: 68 °F

Past Weeks' High & Low Weather Summary

 TemperatureHumidityPressure
High86 °F (Jul 25, 1:50 PM)100% (Jul 18, 1:20 AM)30.27 "Hg (Jul 18, 1:20 AM)
Low55 °F (Jul 17, 5:20 AM)29% (Jul 24, 1:20 PM)29.74 "Hg (Jul 30, 7:50 AM)
Average70 °F67%30.05 "Hg
* Reported Jul 15 10:20 PM — Jul 30 10:50 PM, Aalborg, Weather by CustomWeather, © 2014

Note: Actual official high and low records may vary slightly from our data, if they occured in-between our weather recording intervals... More about our weather records

Advertising

Aalborg weather history for previous 24 hours

 ConditionsComfort  
Time TempWeatherWind HumidityBarometerVisibility
10:50 PM
Jul 30
63 °FPassing clouds.7 mph83%29.77 "HgN/A
10:20 PM63 °FPassing clouds.3 mph83%29.77 "HgN/A
9:50 PM64 °FPassing clouds.3 mph78%29.77 "HgN/A
9:20 PM64 °FPassing clouds.6 mph78%29.77 "HgN/A
8:50 PM66 °FPassing clouds.8 mph73%29.77 "HgN/A
8:20 PM68 °FPassing clouds.10 mph69%29.77 "HgN/A
7:50 PM68 °FPassing clouds.9 mph69%29.77 "HgN/A
7:20 PM70 °FPassing clouds.10 mph60%29.74 "HgN/A
6:50 PM70 °FPassing clouds.14 mph64%29.74 "HgN/A
6:20 PM72 °FPassing clouds.10 mph57%29.74 "HgN/A
5:50 PM72 °FPassing clouds.12 mph57%29.74 "HgN/A
5:20 PM72 °FPassing clouds.10 mph53%29.77 "HgN/A
4:50 PM72 °FScattered clouds.10 mph53%29.74 "HgN/A
4:20 PM73 °FScattered clouds.9 mph53%29.74 "HgN/A
3:50 PM72 °FScattered clouds.10 mph61%29.77 "HgN/A
3:20 PM73 °FPartly sunny.10 mph57%29.77 "HgN/A
2:50 PM72 °FPartly sunny.8 mph61%29.77 "HgN/A
2:20 PM72 °FPartly sunny.8 mph65%29.77 "HgN/A
1:50 PM72 °FPartly sunny.10 mph61%29.77 "HgN/A
1:20 PM72 °FPartly sunny.13 mph65%29.77 "HgN/A
12:50 PM75 °FScattered clouds.17 mph54%29.74 "HgN/A
12:20 PM75 °FScattered clouds.14 mph47%29.74 "HgN/A
11:50 AM73 °FScattered clouds.15 mph61%29.74 "HgN/A
11:20 AM72 °FPartly sunny.14 mph61%29.74 "HgN/A
10:50 AM73 °FScattered clouds.13 mph61%29.74 "HgN/A
10:20 AM72 °FScattered clouds.14 mph61%29.74 "HgN/A
9:50 AM72 °FScattered clouds.13 mph65%29.74 "HgN/A
9:20 AM70 °FPassing clouds.8 mph69%29.77 "HgN/A
8:50 AM70 °FPassing clouds.9 mph73%29.77 "HgN/A
8:20 AM68 °FPassing clouds.10 mph69%29.77 "HgN/A
7:50 AM68 °FPassing clouds.9 mph73%29.74 "HgN/A
7:20 AM66 °FScattered clouds.7 mph78%29.77 "HgN/A
6:50 AM64 °FPartly sunny.7 mph83%29.77 "HgN/A
6:20 AM63 °FPartly sunny.7 mph88%29.77 "HgN/A
5:50 AM59 °FPassing clouds.2 mph94%29.77 "HgN/A
5:20 AM63 °FPassing clouds.7 mph88%29.77 "HgN/A
4:50 AM63 °FPassing clouds.7 mph83%29.77 "HgN/A
4:20 AM63 °FPassing clouds.7 mph83%29.77 "HgN/A
3:50 AM63 °FPassing clouds.6 mph83%29.77 "HgN/A
3:20 AM63 °FPassing clouds.8 mph83%29.77 "HgN/A
2:50 AM63 °FPassing clouds.7 mph83%29.80 "HgN/A
2:20 AM64 °FPassing clouds.9 mph78%29.80 "HgN/A
1:50 AM64 °FPassing clouds.8 mph78%29.80 "HgN/A
1:20 AM64 °FPassing clouds.8 mph78%29.80 "HgN/A
12:50 AM64 °FPassing clouds.8 mph78%29.80 "HgN/A
12:20 AM63 °FPassing clouds.8 mph83%29.80 "HgN/A
Weather by CustomWeather, © 2014

See weather overviewHow to use our weather pages